Wind_Speed
50 53 55 57 58 59 60 60 60 58 56 54 52 50 47 47 47 46 43 39 35 35 39 44 46 52 58 64 71 78 83 87 92 95 96 98 102 106 110 112 114 117 120 122 123 121 118 116 115 114 113 111 107 105 102 100 99 99 99 97 95 93 91 88 87 88 90 92 91 89 88 86 85 84 82 79 77 77 76 75 74 73 73 72 71 70 69 68
50 53 56 57 59 60 61 62 62 60 58 56 54 51 49 49 49 49 46 43 38 35 36 41 45 49 55 61 68 74 81 85 90 94 97 98 100 104 109 112 113 115 119 122 123 123 121 119 117 116 115 114 112 110 107 104 101 98 97 97 96 96 95 92 87 86 88 91 90 89 88 87 87 85 82 80 79 79 79 78 77 76 76 75 73 72 71 69
50 54 56 58 60 62 63 63 63 62 60 58 56 53 51 51 51 50 49 45 41 37 35 38 43 47 52 58 65 71 78 83 88 93 97 99 101 103 107 111 114 114 117 121 124 124 123 121 120 119 117 115 114 114 111 109 106 103 100 97 96 96 95 94 90 88 88 89 88 87 87 87 86 84 82 81 80 79 78 80 81 80 78 76 75 74 73 71
51 55 57 59 61 63 64 65 65 63 62 60 58 56 53 53 52 51 50 47 43 39 36 35 40 45 49 55 62 68 74 80 86 91 95 99 102 103 105 109 113 115 115 117 121 125 125 123 121 121 120 116 114 115 114 111 109 108 106 103 100 97 94 92 91 90 90 89 87 85 84 84 84 83 81 80 80 79 79 82 83 81 78 77 77 75 74 73
51 55 57 59 61 64 65 66 66 65 63 62 61 58 56 55 55 53 50 48 44 40 37 35 37 42 47 51 57 65 71 77 84 89 93 98 102 104 105 107 111 114 115 115 117 122 125 125 123 120 120 119 114 112 113 113 112 110 108 107 105 102 97 94 93 93 92 91 87 86 84 83 81 80 79 77 78 76 74 75 78 80 76 73 74 75 76 76
51 55 57 60 62 64 65 66 67 67 65 64 63 61 59 59 57 55 51 48 45 41 37 35 35 39 44 48 53 60 67 73 80 86 92 96 100 104 106 107 109 112 114 115 115 117 121 125 125 122 119 119 116 112 111 112 112 111 108 107 106 105 102 99 97 96 94 91 89 88 86 83 80 77 76 74 70 66 61 61 63 69 69 65 65 67 70 71
51 55 57 59 62 64 66 67 68 68 67 66 66 64 62 61 60 56 52 49 46 41 37 33 33 35 40 45 50 55 62 69 76 82 88 94 98 102 106 107 109 111 113 114 115 115 117 120 124 124 120 116 116 114 112 112 111 109 109 107 106 105 104 102 101 98 96 93 91 89 86 83 80 77 75 70 66 64 62 60 59 60 61 61 59 57 58 61
51 55 57 60 62 65 67 68 69 69 68 68 68 66 65 64 62 57 52 49 45 42 37 32 29 32 36 41 46 50 56 64 71 77 84 90 96 100 104 107 108 110 111 113 114 114 115 116 119 122 120 115 116 115 112 112 110 108 108 108 106 103 103 104 103 101 98 96 94 93 89 86 82 77 74 70 69 69 69 67 63 60 61 61 60 58 59 63
51 55 58 60 63 65 67 69 69 70 70 70 70 68 68 67 63 57 52 48 44 41 37 31 26 28 32 36 41 46 51 58 65 72 79 85 92 97 101 105 108 109 111 112 113 114 114 114 115 118 119 116 114 112 110 109 108 107 107 107 107 104 102 103 104 103 100 99 98 97 94 91 88 82 76 72 72 72 72 72 70 69 69 69 70 71 72 74
51 55 57 60 63 65 67 69 70 71 71 72 71 70 70 69 64 57 51 46 42 39 35 30 25 24 27 31 35 41 48 53 59 66 73 80 87 93 99 103 106 108 110 111 112 113 113 113 112 113 116 116 112 109 109 106 103 104 105 105 106 104 102 102 102 102 101 100 100 99 97 95 93 89 83 77 75 75 75 74 75 77 78 78 80 80 80 78
51 55 57 60 63 65 67 69 71 71 73 74 73 72 71 70 65 57 49 43 39 36 33 29 25 22 24 28 30 37 44 48 54 61 67 75 81 88 95 100 104 107 109 111 112 112 112 112 112 111 112 114 111 107 107 104 99 99 101 102 103 102 102 101 101 100 98 98 98 98 97 95 94 92 89 85 82 80 79 77 78 81 82 83 84 83 80 78
51 54 57 60 63 65 68 70 71 72 74 75 75 74 73 72 66 57 47 40 35 34 32 28 26 22 22 25 27 32 38 42 48 55 61 69 76 82 89 96 101 104 107 109 111 112 113 113 112 111 111 112 111 107 106 103 99 97 98 99 100 101 101 100 100 99 97 94 93 94 93 92 91 91 90 88 86 85 84 82 83 84 83 83 85 83 81 78
50 54 57 60 62 65 68 70 72 73 74 76 77 76 75 73 67 57 46 37 31 31 31 27 23 22 20 23 24 25 31 36 42 49 56 63 71 77 83 90 96 101 105 107 109 111 112 113 112 111 110 110 111 109 106 105 102 99 98 97 98 99 100 100 100 99 98 95 92 91 89 88 87 87 86 85 85 85 84 83 83 82 79 79 82 81 78 77
50 54 57 60 62 65 68 70 72 73 75 77 78 77 76 74 67 58 46 35 28 28 30 27 22 20 19 20 21 21 24 30 35 41 49 57 64 72 77 83 90 97 102 105 107 110 111 112 111 111 110 108 109 108 105 104 104 102 100 98 97 96 97 99 99 99 98 97 95 93 89 87 85 84 83 82 82 81 80 79 78 77 76 76 78 77 75 75
49 53 56 59 62 65 68 70 72 74 75 77 79 79 78 75 67 58 46 34 27 25 26 27 24 19 17 18 20 20 20 24 29 34 42 51 58 66 72 77 83 90 97 102 105 107 109 111 111 111 110 108 107 107 105 103 104 104 102 100 97 95 94 94 95 97 97 96 95 94 91 88 86 84 82 80 79 77 77 76 76 76 76 76 76 75 74 73
49 52 56 58 61 64 67 70 72 74 75 77 80 80 79 76 68 58 47 35 27 24 22 24 24 20 17 16 18 19 19 20 24 28 36 45 53 60 67 72 77 84 91 97 102 104 106 109 110 110 110 109 107 106 105 104 102 103 103 100 97 94 91 90 90 90 92 92 92 91 88 87 86 84 83 80 78 77 76 75 77 77 76 76 76 74 73 72
48 52 55 58 61 64 67 70 72 74 75 77 80 80 80 77 69 58 47 35 29 26 23 21 22 21 18 16 17 18 18 18 21 25 32 40 48 55 62 68 73 78 84 91 97 101 103 105 107 108 110 110 108 106 105 103 101 101 102 101 98 94 90 88 87 86 85 86 86 84 83 83 84 83 81 80 78 76 74 74 76 77 76 75 74 73 72 71
48 51 55 57 60 63 66 70 72 74 75 76 80 81 80 78 70 59 47 37 30 26 22 18 18 19 18 15 15 16 17 18 19 23 29 37 44 51 58 63 68 73 78 85 92 97 100 102 104 107 108 108 107 105 103 101 99 97 97 98 97 94 91 89 87 86 84 83 81 79 79 80 81 80 79 78 76 75 73 73 75 75 75 74 73 72 72 72
47 50 54 57 59 63 66 69 72 74 74 76 79 81 80 78 72 61 49 38 30 26 22 18 16 17 16 14 13 14 15 17 19 22 27 34 40 47 53 59 64 69 74 79 85 91 96 99 101 103 105 105 105 104 102 101 100 97 94 93 94 92 90 88 86 86 85 84 82 79 77 77 78 77 77 76 75 73 72 72 73 74 74 73 72 72 72 73
47 50 53 56 59 62 65 69 72 74 74 75 79 81 80 79 73 62 51 39 31 27 24 20 16 16 15 13 11 11 14 16 18 20 25 31 37 42 49 55 60 65 69 74 79 85 91 95 97 98 100 101 102 103 101 100 100 99 94 91 91 91 90 88 86 84 83 83 82 81 79 77 76 75 75 74 74 73 72 71 72 73 73 72 71 71 72 74
46 49 52 55 58 61 64 68 72 74 74 74 78 81 80 79 74 64 54 43 33 29 27 23 18 15 14 12 10 10 12 15 17 19 23 28 34 38 44 51 56 61 65 69 74 79 85 89 92 94 95 96 98 100 100 100 99 98 95 91 89 89 89 89 87 85 83 81 81 81 80 78 77 76 75 74 73 72 72 71 72 73 73 71 71 71 72 72
45 48 51 54 57 60 63 67 71 74 74 73 77 80 80 79 75 66 56 45 35 32 31 26 20 14 11 10 8 9 11 14 15 17 20 26 31 35 41 47 52 56 61 65 69 73 78 82 86 90 91 92 94 97 98 99 97 95 95 93 88 87 87 88 88 86 84 82 80 79 79 78 77 76 75 74 73 73 72 71 71 72 72 71 70 71 71 71
43 46 50 53 56 59 63 66 70 73 73 73 76 80 81 80 76 68 58 47 39 37 33 27 21 16 12 8 5 7 10 13 14 16 18 23 29 33 38 44 48 53 57 62 65 68 71 75 80 85 87 88 91 93 95 96 95 94 96 96 91 87 84 84 84 84 83 82 81 79 78 77 76 76 75 75 74 73 72 71 71 70 71 71 70 70 70 71
42 45 48 52 55 58 62 65 69 73 73 72 75 79 81 80 78 71 61 51 43 35 30 27 23 18 14 8 3 5 9 12 13 14 16 20 26 31 35 41 47 51 54 58 61 63 66 70 75 79 83 86 87 89 92 92 92 92 95 98 96 90 85 82 81 81 81 81 80 79 77 76 74 74 75 75 75 74 73 72 71 70 70 70 69 69 70 71
41 43 47 51 53 57 60 64 68 71 72 72 74 77 80 80 79 74 64 54 43 33 30 28 23 18 14 10 5 2 7 11 11 12 15 19 25 30 34 38 43 47 50 52 54 57 61 65 69 74 80 83 84 85 86 87 89 90 92 96 99 96 89 84 80 79 79 78 78 77 75 74 73 72 72 73 73 73 73 73 72 72 72 71 70 71 72 72
39 41 45 49 52 56 59 62 66 70 71 71 72 76 79 81 80 76 67 55 44 36 33 30 24 19 15 12 8 3 4 10 11 12 14 18 24 28 31 35 39 43 44 46 49 53 57 61 65 70 76 80 81 81 81 82 85 87 89 93 97 99 96 90 84 79 75 73 74 74 73 71 71 70 69 69 68 69 71 72 72 73 72 72 73 73 74 74
38 39 43 47 51 54 57 60 64 68 70 70 71 73 77 80 81 78 69 57 48 40 36 32 27 22 16 13 10 5 3 9 12 13 14 18 23 27 29 32 36 40 44 46 49 53 55 57 60 65 69 74 77 77 78 79 82 85 88 90 93 98 101 97 90 82 75 70 68 68 68 68 68 67 65 65 65 65 67 68 69 70 71 71 72 73 74 74
36 38 41 46 49 52 56 58 62 66 69 69 69 71 75 79 80 79 70 60 51 43 36 33 28 23 18 15 12 7 4 8 12 14 16 18 22 25 27 30 33 38 43 47 49 50 52 54 55 57 61 67 72 75 75 77 80 83 85 87 90 94 98 100 95 87 79 72 66 63 61 62 63 64 64 63 64 64 65 65 66 68 69 70 71 72 73 74
34 36 39 43 47 50 54 57 60 64 67 68 68 68 73 77 78 78 72 63 54 44 36 33 29 24 21 17 13 9 6 8 11 14 16 18 21 24 27 30 33 37 41 45 47 48 48 49 50 51 55 62 68 72 73 75 78 80 81 85 88 90 92 95 96 94 87 78 69 62 59 56 55 58 60 61 63 64 64 64 65 66 67 69 71 72 73 73
33 35 38 41 45 48 52 55 58 62 65 67 67 67 70 73 76 77 74 66 57 46 39 35 31 28 24 19 14 11 7 7 10 12 15 17 19 22 25 28 32 36 38 41 43 45 45 45 46 49 52 58 63 68 71 73 75 77 78 81 83 84 85 87 91 94 93 87 77 67 60 56 52 52 53 55 58 60 60 62 63 64 66 68 70 71 72 72
32 34 36 39 42 46 50 53 56 59 63 66 66 65 67 70 73 75 74 68 60 51 44 37 34 30 25 21 16 12 9 8 10 12 13 16 19 21 24 27 30 33 36 38 40 41 43 44 45 47 49 53 59 64 68 70 71 73 74 76 77 79 81 83 85 89 92 93 87 76 66 59 56 54 53 52 53 54 55 58 59 61 63 65 67 68 69 70
31 32 34 36 40 44 47 50 53 57 60 64 65 64 64 66 70 72 73 70 63 56 48 40 35 31 26 23 20 15 10 8 10 12 13 15 18 21 24 27 29 30 32 35 37 38 40 41 42 43 45 48 53 59 63 65 67 68 69 71 73 75 77 79 80 82 85 90 92 86 76 66 61 58 56 55 54 53 53 55 57 58 60 61 63 65 66 67
29 30 32 34 37 41 45 48 51 54 57 61 64 63 62 64 67 70 72 71 66 59 52 44 37 32 27 25 23 20 13 8 9 12 14 15 18 20 23 27 30 31 32 33 34 35 36 37 38 39 40 43 48 53 57 61 63 64 65 66 68 70 72 74 75 77 80 86 92 92 85 76 67 61 60 60 57 54 53 53 55 56 57 58 59 61 62 63
26 28 30 32 35 38 42 45 48 51 54 58 62 63 62 61 64 68 70 71 69 63 56 48 40 34 29 25 25 23 17 11 8 11 14 15 17 20 22 25 28 31 33 33 33 33 33 33 33 34 36 39 43 48 52 56 58 59 60 61 62 64 66 68 71 73 76 82 87 90 90 85 76 70 67 64 59 57 55 53 53 53 54 55 55 56 58 60
24 26 28 30 32 36 39 43 46 49 51 55 59 62 61 59 61 65 68 69 69 66 59 52 45 37 31 26 24 23 20 15 10 10 14 16 17 19 21 23 25 27 30 32 32 32 32 32 31 31 33 35 39 43 48 51 53 55 56 56 57 60 62 65 67 70 72 74 77 82 88 90 86 80 74 69 64 61 58 55 53 52 52 52 52 53 54 56
22 24 27 28 30 34 36 40 43 46 49 52 56 59 60 58 59 62 65 67 69 68 63 57 50 42 35 29 25 22 20 18 14 9 11 16 18 20 21 23 25 26 28 31 31 31 31 32 32 31 31 33 36 40 44 47 50 52 52 53 55 58 60 61 63 64 65 66 68 72 78 84 88 87 82 76 71 67 63 59 56 54 52 52 52 52 53 54
19 22 25 26 28 31 34 37 40 43 46 49 52 56 58 58 57 59 62 65 67 68 67 62 54 47 41 34 28 23 20 18 17 12 9 11 16 20 21 23 25 26 28 31 33 33 33 32 32 31 30 30 33 37 40 43 45 47 48 50 52 53 55 56 57 58 58 59 62 64 67 72 79 85 86 83 78 73 68 64 60 57 55 53 52 53 53 54
18 20 23 24 26 29 32 34 37 40 44 46 49 53 56 57 56 56 59 62 64 66 67 65 59 53 47 40 33 27 22 19 18 14 12 9 9 16 21 23 26 27 28 31 33 34 35 34 33 31 30 29 31 35 38 40 42 44 46 46 46 47 49 51 52 53 54 55 56 58 60 62 66 72 78 81 81 79 74 70 66 62 59 57 56 55 56 56
17 18 21 22 24 27 30 32 34 37 41 43 46 49 52 55 55 54 55 58 61 63 65 66 64 59 53 47 40 33 27 23 20 16 14 12 8 10 15 20 24 26 28 29 31 33 33 33 32 31 31 31 31 33 36 38 39 41 42 41 41 42 44 46 48 49 50 51 52 52 54 55 58 61 65 69 74 77 77 76 74 71 68 65 64 63 63 64
17 16 19 21 22 25 27 29 31 34 37 40 43 46 49 52 54 54 53 55 58 61 63 65 66 64 60 53 47 41 34 29 24 20 17 16 13 10 11 15 20 24 26 26 28 31 32 33 33 32 31 30 31 33 36 38 39 39 38 37 37 38 40 41 43 44 45 46 47 48 49 50 52 54 56 59 62 66 70 72 74 75 75 74 74 73 73 74
18 17 18 19 21 23 25 27 29 30 33 37 39 42 45 48 51 53 53 53 55 58 60 62 65 66 65 61 55 49 44 37 31 26 22 19 18 16 12 11 16 21 24 26 25 26 29 31 32 32 31 30 32 35 38 40 39 37 37 36 35 35 36 37 38 39 41 42 43 43 45 46 47 48 50 52 54 56 59 62 65 68 71 73 75 77 78 79
18 18 18 18 19 21 23 25 26 27 30 33 36 39 42 44 47 50 52 52 53 55 58 60 62 64 66 66 62 56 52 46 39 35 30 24 21 21 20 14 12 17 22 25 26 25 25 26 27 30 34 33 33 35 37 38 38 37 37 35 34 34 34 34 36 37 38 39 40 41 42 43 43 44 45 46 48 50 51 54 56 58 61 63 64 65 66 65
18 18 18 17 18 20 21 22 24 26 26 29 33 35 38 41 43 46 49 51 51 53 55 57 60 62 64 66 66 63 59 54 48 44 39 34 28 26 26 24 17 13 16 21 25 26 25 26 27 31 35 37 37 36 37 37 37 36 35 33 32 32 32 33 34 35 35 36 36 37 39 39 39 40 41 41 41 42 43 45 46 47 47 48 48 48 47 46
17 17 17 17 18 19 19 20 22 24 24 26 29 32 34 37 39 42 45 48 50 51 53 55 57 59 61 63 65 66 65 62 57 52 48 44 38 33 30 31 28 23 18 17 20 23 24 24 25 24 26 31 36 37 37 38 37 36 34 32 31 31 31 31 31 31 32 32 33 33 34 34 34 34 33 33 34 34 35 35 35 35 36 36 36 35 34 34
16 17 16 16 18 18 18 19 19 22 22 23 25 28 30 33 35 38 41 43 46 48 50 52 54 56 58 60 62 64 66 66 64 61 57 53 49 44 38 35 34 32 29 24 21 21 22 23 24 22 19 21 26 29 31 32 33 32 31 30 29 28 28 28 27 27 27 28 28 28 28 27 26 26 27 27 27 28 28 29 29 29 29 28 28 28 27 27
16 16 15 15 17 18 18 18 18 19 20 21 22 24 27 29 31 34 37 39 42 44 46 49 51 53 55 57 59 61 63 65 66 66 64 61 57 53 49 44 40 37 36 34 30 28 26 25 25 25 23 20 20 22 23 23 23 22 22 22 22 21 20 20 20 21 21 21 21 21 22 21 20 22 24 24 24 24 24 24 23 23 23 23 22 22 20 19
16 16 14 16 18 19 18 18 17 17 18 19 19 21 23 25 27 30 33 35 37 40 42 45 47 50 52 54 56 58 60 62 64 65 66 66 64 61 58 54 50 45 42 40 38 36 34 32 29 27 27 24 21 19 19 18 18 18 18 17 17 16 16 16 17 17 16 16 17 18 18 18 18 19 20 19 19 19 18 18 17 17 16 15 14 13 13 13
17 16 15 16 18 18 18 18 17 16 17 17 17 18 19 21 24 26 28 31 33 35 38 40 43 45 48 50 52 54 57 58 60 62 63 64 65 65 64 62 59 56 52 48 45 42 39 38 36 33 32 30 28 25 22 21 20 19 18 17 16 16 15 15 14 14 14 14 14 14 14 13 13 14 13 13 13 13 12 12 11 11 12 12 12 12 12 11
18 17 16 16 15 15 18 19 18 16 16 16 16 15 16 17 20 22 24 26 29 31 33 36 38 40 43 45 47 50 52 54 56 58 59 60 62 63 64 64 64 63 61 59 56 52 49 46 43 40 37 35 33 31 28 26 24 22 20 19 17 16 15 14 13 13 12 11 11 11 11 10 11 11 11 12 13 13 14 14 15 14 13 12 11 9 8 7
21 18 17 17 14 15 19 21 19 16 15 15 15 14 14 14 16 18 20 22 24 27 30 31 33 36 38 40 42 44 47 49 51 53 54 56 57 59 60 61 62 62 62 62 62 61 59 56 54 51 48 45 42 40 37 35 32 30 28 26 25 23 22 21 21 20 20 19 20 20 19 19 20 21 20 19 19 19 17 16 14 12 10 8 6 5 4 5
24 21 19 18 15 16 20 20 19 17 14 14 15 14 12 12 12 14 16 18 20 22 25 28 29 31 33 35 37 39 42 44 45 47 49 50 52 54 55 57 57 58 59 60 60 60 60 59 58 57 56 54 52 50 48 46 44 42 41 39 38 36 35 34 33 32 31 30 29 29 27 26 25 25 23 21 19 17 15 13 11 8 6 3 1 3 6 8
27 24 22 19 17 18 20 19 18 18 15 13 14 14 12 10 10 10 12 14 16 18 20 23 25 27 29 31 32 35 37 38 40 42 43 45 47 48 50 51 52 53 54 55 56 56 56 55 55 55 54 53 53 52 50 49 48 46 45 43 42 40 39 38 36 35 33 32 31 29 28 25 24 23 21 18 16 14 12 9 7 4 3 3 5 7 9 11
Wind_Direction
342 341 341 342 342 342 341 341 341 340 339 337 336 333 329 326 321 314 307 299 288 275 265 258 248 241 236 232 230 229 229 228 227 226 224 222 221 221 222 223 224 224 224 225 225 224 223 223 224 224 224 224 225 226 227 228 230 231 233 235 236 236 237 237 236 237 239 240 241 241 242 243 244 244 245 246 249 251 252 253 254 256 257 259 260 262 264 265
342 341 341 342 342 342 341 341 341 341 339 338 337 335 332 328 324 318 311 304 295 283 269 260 252 244 238 234 230 228 228 228 227 226 225 224 222 221 221 222 224 224 224 225 225 225 224 224 224 225 224 224 224 226 226 228 230 231 232 233 234 235 236 237 236 237 238 240 241 241 242 243 245 246 247 249 251 253 254 256 257 258 260 261 263 264 265 266
342 341 341 342 342 342 342 342 342 341 340 339 338 337 334 331 327 321 314 308 301 291 277 263 256 248 240 235 231 229 227 227 227 226 225 225 223 221 221 221 223 224 224 224 225 226 226 225 225 226 226 224 224 226 226 227 229 231 232 232 233 234 235 236 236 236 238 239 240 240 241 243 245 246 247 249 251 254 256 258 259 260 261 263 265 266 266 267
342 341 341 343 343 343 342 342 342 341 340 340 340 339 336 334 330 325 317 311 304 296 285 270 258 251 243 236 232 229 227 226 226 226 225 225 224 222 221 221 222 223 224 224 225 225 226 226 226 226 228 227 226 226 227 227 228 230 232 233 234 234 234 235 236 237 238 239 240 241 241 242 243 245 246 248 251 254 257 259 259 260 262 265 266 265 265 265
342 341 341 343 343 343 343 343 342 342 341 341 341 340 339 336 333 328 321 314 307 300 290 277 263 253 246 239 233 230 228 226 225 225 225 224 224 223 221 220 221 222 223 224 224 225 225 226 226 227 228 229 229 227 227 227 228 229 230 232 234 235 236 235 236 236 238 239 240 241 242 242 243 245 246 248 251 253 255 258 259 258 261 264 263 262 262 263
342 341 342 343 344 344 343 343 343 343 343 343 343 342 341 339 336 331 324 317 310 304 295 283 268 256 248 241 235 231 228 226 225 224 224 224 224 223 222 221 221 221 222 223 224 225 225 225 226 227 228 230 230 229 228 227 227 228 229 231 233 234 236 236 236 237 238 239 240 241 242 244 245 246 246 247 248 247 250 256 256 255 256 257 256 257 260 261
341 341 342 343 344 344 344 344 344 344 344 344 344 344 342 341 338 333 326 319 313 307 299 287 273 259 249 242 237 232 228 227 225 224 223 224 224 223 223 222 221 221 221 222 223 224 225 225 226 226 227 229 230 230 229 228 228 227 228 230 231 233 234 235 236 237 238 239 240 241 242 244 244 245 246 244 240 239 245 253 250 248 249 250 251 253 256 259
341 341 342 343 345 345 345 345 344 345 346 346 346 345 344 343 340 336 328 321 315 309 302 292 277 262 251 244 238 234 229 227 226 224 223 223 223 224 223 222 221 221 221 221 222 223 224 225 225 226 226 227 229 230 230 230 229 228 228 229 230 231 232 234 235 236 237 239 240 241 242 243 243 244 245 242 238 237 243 248 245 243 245 245 248 251 255 260
340 341 342 344 345 346 345 345 345 346 347 347 347 347 346 345 342 338 330 323 316 310 305 297 283 266 255 246 240 235 231 227 225 224 224 223 223 223 223 223 222 221 221 221 221 222 224 225 225 225 226 226 227 229 230 231 231 230 229 228 229 230 232 233 235 236 237 239 240 242 243 244 244 244 244 242 240 240 242 243 243 245 247 248 251 255 259 264
340 341 342 344 346 347 346 346 346 348 349 348 348 348 348 347 344 340 333 324 317 311 306 301 291 273 260 251 242 237 232 228 225 223 222 223 222 222 223 223 223 221 221 221 221 222 223 224 225 225 226 226 226 227 229 230 230 231 230 229 229 229 230 232 234 236 237 239 240 242 243 244 245 245 245 243 241 241 242 243 245 249 252 254 256 259 262 265
340 341 343 345 346 347 347 347 348 349 350 349 349 350 350 348 346 342 335 326 317 311 307 303 296 282 267 257 245 238 235 229 226 223 221 221 222 222 222 223 223 222 221 221 221 221 222 222 223 224 225 225 225 225 227 228 228 229 230 230 229 229 229 231 233 234 235 237 239 241 242 243 244 245 245 245 244 244 245 246 249 252 255 258 260 262 264 266
340 341 343 345 347 348 348 348 349 350 351 350 350 351 352 350 348 344 338 328 318 311 307 303 297 288 272 262 252 240 237 232 227 224 221 220 220 221 221 222 222 222 222 221 220 221 221 222 222 223 224 224 224 224 225 226 225 227 228 229 230 230 229 230 231 233 233 235 236 238 240 241 242 243 244 245 246 246 248 249 251 254 258 260 261 262 265 267
340 342 343 346 348 348 348 349 350 352 352 351 351 352 353 352 349 346 341 331 320 311 308 304 297 290 277 266 259 247 239 235 229 225 222 219 219 220 220 221 222 222 222 221 220 220 221 221 221 222 223 224 224 223 224 225 225 225 227 229 230 231 231 231 231 232 233 234 235 237 238 239 241 242 243 244 245 246 248 250 252 254 256 257 260 262 265 266
340 342 344 346 348 349 349 350 352 353 353 352 352 353 354 353 351 348 344 335 324 315 309 307 301 291 280 269 263 254 243 237 231 225 222 220 218 218 219 220 221 221 222 222 221 220 220 221 221 221 222 223 224 223 222 224 225 225 227 228 230 231 232 233 233 233 234 235 236 237 238 239 240 241 243 244 245 246 247 249 250 251 252 254 258 261 263 264
340 342 344 347 349 350 350 351 353 354 354 353 353 354 355 354 353 350 346 339 329 319 311 307 305 297 284 272 265 260 249 240 233 225 221 220 218 217 218 219 220 220 221 222 222 221 220 220 221 221 221 222 223 222 221 222 224 226 227 228 229 231 232 234 235 236 236 236 237 238 239 240 241 242 243 244 244 245 245 246 247 248 250 252 256 259 261 263
340 342 345 348 350 351 352 353 354 355 354 354 354 355 356 355 354 352 349 343 335 327 317 307 303 299 290 275 267 263 254 244 235 225 219 218 217 216 217 217 218 219 220 221 221 221 220 219 220 220 221 221 222 222 221 220 222 224 226 227 228 229 230 232 234 236 237 238 238 239 239 240 241 241 242 243 243 244 244 245 247 248 250 253 255 258 261 263
340 343 346 349 351 352 353 354 355 356 355 355 355 356 357 356 356 354 351 347 342 336 327 312 301 297 293 280 270 265 257 245 235 224 216 215 215 215 215 216 217 218 219 220 220 221 221 220 219 220 220 221 221 222 221 220 221 223 226 227 228 228 229 230 232 234 236 238 239 239 239 239 240 241 242 243 243 243 244 245 247 249 252 254 256 258 261 262
341 344 347 350 352 353 354 355 356 356 356 356 356 356 357 358 357 356 354 351 347 342 333 318 302 295 292 285 273 263 255 245 234 224 215 212 213 213 213 214 215 216 218 219 219 220 220 220 219 219 220 220 221 221 222 221 219 221 224 227 228 228 229 229 231 232 234 236 237 238 238 238 240 241 242 243 243 244 244 245 246 249 252 254 256 258 259 260
341 344 348 351 353 354 356 356 357 357 357 357 357 357 358 359 359 358 357 353 350 348 342 331 313 299 292 287 275 258 246 238 230 223 215 211 211 211 211 213 214 215 216 218 218 219 219 220 219 219 219 220 220 221 221 220 218 218 221 224 226 227 228 228 230 231 232 234 235 235 235 237 239 240 241 242 242 243 244 245 246 249 251 253 255 257 258 259
342 345 349 352 354 355 357 357 357 357 358 358 357 357 359 0 0 0 359 357 354 354 352 344 328 311 299 290 275 253 235 229 224 220 214 211 210 210 209 211 212 214 215 216 217 218 218 219 219 219 219 220 220 220 220 220 219 218 218 220 223 225 226 226 227 228 230 232 233 234 234 234 236 238 239 240 241 242 243 244 246 248 251 252 254 255 256 257
343 346 349 353 355 357 358 359 358 358 358 358 358 358 359 1 2 2 2 360 358 359 360 355 343 325 307 294 274 244 223 219 218 215 212 209 209 208 207 209 211 212 214 215 216 216 217 218 218 218 218 219 219 220 220 220 220 218 217 218 221 224 225 226 226 226 227 229 231 233 233 234 235 236 237 238 239 240 242 243 244 247 249 251 252 253 254 255
343 346 350 354 356 358 359 360 359 359 359 359 359 359 360 2 3 4 4 2 2 5 3 359 352 339 322 302 270 233 211 207 210 210 208 206 207 206 206 208 209 210 212 213 215 216 216 217 217 217 217 217 218 219 219 220 219 218 215 215 218 221 224 226 227 226 227 227 229 231 232 233 234 235 236 237 238 239 240 242 243 244 247 249 249 250 251 253
344 347 350 354 357 358 0 1 -0 359 359 0 0 360 1 3 4 6 5 5 8 8 3 0 0 359 353 332 277 224 199 196 202 204 202 202 203 203 205 206 207 208 210 211 213 214 215 215 216 216 216 216 217 218 218 219 219 217 215 214 215 218 221 224 227 227 227 227 228 229 231 232 233 235 236 236 237 238 239 240 240 242 244 246 248 249 251 253
344 347 351 354 357 359 1 2 1 360 0 1 1 1 2 4 6 7 7 7 9 7 5 6 8 9 10 2 317 223 191 185 193 198 196 196 198 200 203 204 205 207 208 210 211 211 212 213 214 215 215 215 216 217 218 218 218 217 216 214 214 216 218 221 224 226 227 227 228 229 230 231 232 233 235 236 237 238 239 240 240 241 243 245 247 249 251 253
344 347 351 354 357 359 1 2 2 1 1 2 2 2 3 5 7 8 8 8 8 9 12 13 13 15 19 20 6 264 187 175 180 187 187 189 193 198 200 202 204 206 207 209 209 210 210 212 213 213 214 214 215 216 217 217 217 217 217 216 215 215 216 219 221 224 226 227 228 229 230 231 231 232 234 235 236 238 239 241 242 242 243 245 246 248 250 252
344 347 352 354 357 359 2 3 4 3 2 3 3 3 4 6 7 9 9 9 9 13 16 16 17 20 23 28 22 356 177 166 166 172 178 183 190 195 198 200 201 202 204 206 206 207 209 211 212 213 213 214 214 215 215 216 216 216 217 216 216 215 215 217 218 221 224 226 228 230 230 231 232 232 233 235 236 237 239 241 242 243 245 246 247 248 250 252
343 348 352 354 356 359 2 4 5 4 3 4 5 5 6 7 8 9 9 10 11 15 16 16 19 22 25 31 30 25 136 156 156 159 169 179 186 192 195 196 197 197 198 200 202 204 206 208 210 212 213 213 213 213 213 214 215 215 216 217 217 216 216 216 217 219 221 224 227 230 231 232 233 233 234 235 237 237 238 239 241 242 244 245 246 248 249 251
343 348 352 354 356 359 2 4 6 6 4 4 6 6 7 9 9 9 10 12 14 15 17 18 20 24 29 34 36 38 95 144 151 154 164 175 182 188 191 191 193 195 195 196 199 202 204 206 208 211 212 212 212 212 212 213 214 215 215 216 217 217 217 217 217 218 220 221 223 226 230 232 234 235 235 236 238 238 238 239 240 241 243 244 246 247 249 251
342 348 351 354 356 358 2 5 7 7 5 5 6 7 9 10 10 10 11 14 15 16 19 21 22 28 32 36 41 48 83 132 147 154 160 170 179 184 186 187 188 192 195 196 196 199 202 204 205 207 209 210 210 211 211 212 213 214 215 216 217 218 218 218 218 218 219 220 221 222 225 229 233 237 238 238 239 240 241 241 242 242 243 245 246 248 251 253
342 347 350 353 356 358 1 5 8 9 7 6 7 8 10 11 11 11 12 15 16 17 22 24 24 29 32 35 42 53 76 115 136 148 157 164 173 179 183 185 186 188 192 195 195 196 198 200 202 204 206 208 209 209 209 211 213 213 214 215 217 218 219 219 219 219 219 220 221 220 220 223 227 233 238 240 241 242 243 244 244 245 245 246 248 251 253 255
342 345 348 352 356 358 1 5 9 10 9 8 8 10 12 13 13 13 14 15 17 19 22 25 26 28 33 37 42 53 72 104 127 139 152 159 164 172 177 182 186 187 189 191 194 194 195 197 200 202 204 206 207 208 209 210 212 213 214 215 216 218 219 219 220 220 220 220 221 221 219 218 220 225 231 237 240 242 243 244 245 245 246 247 249 251 253 256
341 343 347 351 355 358 0 4 9 11 11 9 9 11 13 14 15 15 16 17 19 21 23 25 28 28 33 41 43 48 62 94 120 132 144 154 160 166 172 176 181 185 188 190 192 194 195 196 198 200 203 205 206 208 208 209 211 213 214 215 215 217 218 219 220 221 221 220 220 221 221 219 218 221 225 229 234 237 239 241 243 244 246 248 250 252 254 256
338 341 347 351 354 357 0 4 8 12 12 11 10 12 14 15 16 17 18 19 21 23 24 26 29 30 33 42 47 47 52 80 114 128 137 148 156 161 168 172 175 179 184 188 190 193 195 197 198 198 201 204 205 206 207 209 210 212 213 213 215 216 218 219 220 220 221 221 221 221 222 221 220 221 224 226 228 233 236 238 241 243 245 247 249 251 254 256
335 340 347 351 354 357 360 3 8 12 13 12 11 12 14 16 18 19 20 22 23 24 26 27 29 32 33 41 50 51 49 61 98 124 132 141 151 156 164 170 174 176 179 183 186 190 193 196 199 199 199 202 204 204 205 207 209 211 212 213 214 215 217 219 220 220 220 221 222 222 222 223 223 223 225 226 228 231 235 237 240 242 244 246 248 250 252 254
335 342 347 351 354 356 359 3 7 12 14 14 13 13 15 17 20 21 22 24 25 26 28 29 30 33 35 39 48 55 55 57 73 113 129 136 143 151 158 164 170 174 176 178 182 185 188 190 195 199 200 200 201 203 204 205 207 209 210 211 212 214 215 217 219 220 220 221 222 222 223 224 225 225 227 228 230 232 235 238 240 242 244 246 248 250 251 253
338 345 347 350 353 356 359 2 7 11 14 16 15 14 15 18 21 23 24 25 27 28 30 31 32 34 37 40 45 53 60 63 64 81 123 137 142 147 154 159 164 171 174 175 177 181 184 187 189 194 198 199 199 201 202 203 205 207 207 208 210 211 213 216 218 219 221 222 222 223 224 225 226 227 229 230 232 234 236 239 242 243 245 246 248 249 250 252
339 346 346 348 353 356 358 2 6 11 14 16 17 16 16 18 22 24 26 27 29 30 32 33 34 36 39 41 45 50 57 68 70 71 95 131 146 148 152 159 162 167 173 174 175 177 180 183 186 188 192 197 198 198 199 202 203 205 207 208 209 210 212 215 217 218 220 222 223 224 224 225 227 228 230 232 234 235 237 239 243 245 247 248 249 250 251 252
336 344 345 346 352 356 357 1 6 11 14 16 18 18 17 19 22 25 28 29 31 32 34 35 36 39 41 42 46 50 54 63 72 78 86 100 138 152 155 161 164 166 172 175 176 176 177 179 182 183 185 190 195 195 196 198 200 203 206 208 208 209 211 214 216 217 219 220 222 223 224 226 227 229 230 233 235 236 238 239 242 244 247 249 251 252 253 254
330 339 341 343 350 354 356 360 5 10 14 16 18 19 19 20 23 26 29 31 33 34 36 37 38 40 43 44 47 51 54 60 65 74 87 92 109 146 158 165 168 168 171 176 177 175 175 176 178 179 180 184 189 192 193 194 198 201 204 206 206 207 209 211 213 216 218 219 221 222 223 225 227 228 230 232 234 236 238 240 242 244 246 248 251 253 255 257
324 331 334 340 348 352 353 358 3 9 14 17 18 20 21 21 23 26 29 32 35 36 38 39 40 41 43 45 48 51 55 60 64 68 79 92 100 114 144 165 171 169 168 171 175 176 174 174 175 176 177 179 183 186 189 191 195 199 201 203 205 205 207 210 212 214 217 219 220 221 222 224 226 228 229 231 233 235 237 240 242 244 247 249 251 254 256 258
318 322 327 336 344 347 350 355 1 7 12 16 19 20 22 22 24 26 29 33 36 38 40 41 43 44 45 46 48 52 55 58 64 67 72 83 94 100 111 145 167 167 163 163 168 173 173 172 173 171 171 175 181 183 185 188 191 195 197 200 202 203 205 208 210 213 216 218 219 221 223 224 226 227 229 231 233 235 237 239 242 244 247 249 251 254 256 259
312 317 324 331 337 341 346 351 357 4 11 16 19 21 23 23 24 26 29 33 37 40 41 43 44 46 47 48 49 51 55 57 61 66 68 73 84 94 96 107 145 163 163 160 159 162 167 168 170 170 169 172 178 181 182 185 188 192 195 198 198 199 201 204 207 211 214 216 218 220 223 225 226 228 230 232 233 235 237 240 242 244 247 250 252 255 258 260
306 312 320 325 328 333 340 346 352 359 8 15 19 21 23 24 24 26 29 33 37 40 43 44 46 48 49 50 51 52 55 57 60 64 66 68 73 85 92 93 101 129 151 158 156 156 161 164 170 176 174 171 173 177 180 182 186 189 193 195 195 197 199 202 205 208 211 215 217 220 223 225 227 229 232 234 236 238 240 243 245 248 250 252 255 257 259 261
301 305 315 320 322 326 333 340 347 354 2 13 18 20 23 25 25 26 29 32 36 40 43 45 47 49 50 52 53 54 56 57 59 62 66 68 69 74 84 90 92 96 108 128 143 148 154 159 164 173 178 172 169 171 175 179 183 187 188 191 193 195 198 201 204 207 210 213 215 219 223 225 227 231 234 237 240 242 244 246 248 250 252 253 255 257 259 260
300 302 307 312 317 321 327 334 341 348 356 7 16 19 22 25 26 27 28 31 35 38 42 45 47 49 51 53 54 56 57 58 59 61 64 67 70 71 75 82 88 92 94 99 110 124 134 142 144 148 160 167 165 166 170 175 179 182 184 187 190 193 197 199 201 205 209 212 215 219 223 226 227 231 235 237 239 240 242 244 246 248 250 252 255 257 259 260
298 298 299 305 312 316 321 328 335 341 349 360 11 17 21 23 26 28 28 30 33 37 40 44 47 49 51 53 55 57 58 60 61 62 63 65 68 71 73 76 80 86 91 95 97 103 111 118 125 129 136 146 151 154 159 164 167 170 174 178 182 187 191 193 197 203 206 208 212 216 221 223 222 225 230 232 234 237 239 241 244 246 249 251 252 253 252 249
295 294 294 298 302 305 312 321 327 333 341 351 3 12 18 22 24 27 30 30 32 35 38 41 45 48 51 53 55 57 59 61 62 63 65 66 67 69 72 74 77 80 84 89 93 97 101 104 107 111 117 123 127 130 133 138 142 147 153 160 166 172 177 182 189 194 194 199 205 208 212 214 213 218 225 227 230 233 236 238 240 239 239 236 231 225 218 215
291 291 288 287 291 297 306 315 321 326 333 342 353 3 13 20 22 25 29 31 32 34 37 39 43 46 49 52 54 56 58 61 63 64 66 67 69 70 71 73 75 77 80 82 86 90 94 98 101 103 106 110 112 114 115 118 123 128 135 141 148 155 161 166 172 176 178 187 193 194 199 203 203 208 215 215 215 216 213 209 202 195 190 185 182 185 191 202
285 286 283 279 283 294 303 309 314 319 324 331 341 352 4 16 21 22 26 31 33 34 36 38 41 44 47 50 53 55 57 59 62 64 66 68 70 71 72 73 75 76 78 80 82 84 86 89 93 95 98 101 105 107 109 110 113 116 120 124 128 133 136 139 143 147 151 154 154 156 163 166 163 162 161 161 159 156 154 154 153 154 158 163 171 183 196 212
280 281 280 277 278 288 294 298 303 311 318 323 328 339 353 8 19 22 22 27 32 35 36 37 40 43 45 48 50 53 56 58 60 62 65 67 69 71 73 75 76 77 78 80 81 82 83 85 87 89 91 93 95 97 99 101 103 104 106 108 110 112 113 114 116 117 117 118 120 122 123 126 128 127 127 130 132 132 134 136 138 143 149 157 170 190 221 255
276 276 277 276 272 274 279 284 293 302 309 314 316 323 338 355 11 20 22 24 28 33 37 38 39 41 44 47 49 51 54 57 59 61 63 65 67 70 72 74 76 77 79 80 81 82 84 85 86 87 89 90 91 93 94 95 97 98 100 101 102 103 104 105 107 108 109 111 113 113 113 116 118 117 118 120 120 120 122 123 125 128 132 141 211 294 301 304
274 274 274 273 267 263 266 273 284 293 299 303 307 310 320 337 355 10 20 24 25 29 35 38 40 41 43 46 48 50 52 54 57 59 61 64 66 68 70 72 74 76 78 80 81 83 85 86 87 88 89 90 92 93 94 95 96 97 98 99 100 101 102 103 104 105 106 107 107 108 109 109 109 109 110 110 109 108 107 104 99 84 51 359 334 324 317 314
Height
10636 10631 10626 10621 10617 10612 10607 10602 10597 10591 10586 10581 10575 10570 10565 10560 10555 10551 10547 10545 10544 10542 10539 10537 10538 10538 10539 10541 10544 10547 10550 10555 10560 10565 10571 10578 10584 10590 10596 10601 10606 10613 10619 10626 10633 10640 10649 10656 10661 10668 10675 10682 10690 10695 10699 10703 10707 10714 10720 10725 10732 10736 10739 10743 10746 10748 10749 10751 10759 10765 10769 10773 10774 10779 10784 10790 10794 10793 10793 10795 10797 10799 10801 10803 10805 10807 10808 10809
10633 10628 10624 10619 10614 10609 10604 10598 10593 10587 10582 10576 10571 10565 10560 10554 10548 10542 10538 10535 10533 10532 10530 10528 10527 10528 10529 10530 10533 10536 10539 10544 10549 10554 10560 10567 10574 10580 10586 10591 10597 10603 10610 10617 10623 10631 10640 10647 10653 10660 10667 10675 10682 10687 10692 10697 10703 10709 10715 10721 10726 10728 10733 10738 10742 10744 10742 10745 10754 10760 10764 10767 10770 10776 10784 10789 10789 10787 10788 10790 10792 10794 10796 10799 10801 10803 10804 10805
10631 10626 10621 10616 10611 10606 10600 10594 10589 10583 10577 10571 10566 10560 10554 10548 10541 10534 10529 10525 10523 10521 10520 10518 10517 10517 10518 10520 10522 10525 10528 10533 10538 10543 10549 10555 10562 10569 10576 10581 10587 10594 10601 10608 10615 10622 10630 10638 10645 10651 10657 10666 10673 10679 10685 10691 10698 10704 10708 10714 10718 10721 10728 10734 10738 10738 10735 10739 10748 10754 10759 10763 10767 10774 10781 10785 10783 10781 10783 10785 10787 10789 10792 10795 10797 10798 10800 10801
10629 10624 10618 10614 10608 10602 10597 10591 10585 10579 10572 10566 10560 10554 10548 10542 10535 10528 10521 10516 10513 10511 10510 10508 10507 10506 10507 10509 10511 10514 10518 10523 10527 10531 10538 10544 10550 10558 10565 10572 10578 10585 10592 10598 10606 10613 10620 10629 10637 10643 10649 10657 10665 10671 10678 10685 10692 10696 10700 10707 10712 10718 10725 10731 10734 10731 10729 10735 10744 10749 10754 10758 10763 10770 10777 10780 10778 10777 10780 10781 10782 10785 10789 10791 10792 10793 10795 10796
10627 10622 10616 10611 10606 10600 10594 10587 10581 10574 10567 10561 10554 10548 10542 10535 10528 10520 10514 10508 10504 10501 10499 10498 10497 10496 10496 10498 10501 10503 10507 10512 10516 10520 10527 10533 10539 10546 10554 10562 10568 10575 10583 10590 10597 10604 10612 10621 10630 10637 10642 10649 10656 10663 10671 10677 10682 10687 10695 10703 10708 10715 10722 10727 10727 10724 10725 10733 10740 10743 10747 10752 10759 10768 10773 10775 10773 10773 10776 10776 10777 10782 10786 10787 10787 10789 10790 10792
10625 10620 10614 10609 10603 10597 10591 10584 10577 10570 10563 10555 10548 10542 10535 10528 10520 10512 10506 10499 10495 10492 10490 10488 10486 10485 10485 10487 10490 10493 10497 10501 10505 10510 10516 10522 10528 10535 10543 10551 10558 10566 10574 10581 10589 10596 10603 10612 10622 10630 10635 10641 10648 10654 10661 10667 10673 10683 10692 10698 10702 10709 10716 10720 10718 10718 10723 10730 10735 10737 10741 10749 10757 10762 10764 10767 10769 10769 10771 10772 10773 10777 10781 10782 10782 10784 10786 10789
10623 10618 10613 10607 10601 10595 10588 10581 10574 10566 10558 10550 10543 10536 10528 10521 10513 10505 10498 10491 10486 10483 10481 10479 10477 10476 10475 10477 10479 10483 10487 10491 10494 10500 10507 10512 10518 10525 10532 10541 10549 10557 10565 10573 10581 10588 10595 10604 10614 10623 10629 10634 10639 10645 10651 10657 10666 10678 10686 10690 10696 10703 10709 10711 10711 10714 10720 10725 10729 10732 10738 10745 10751 10754 10756 10761 10765 10766 10769 10769 10769 10772 10775 10777 10779 10780 10782 10783
10622 10616 10611 10605 10599 10592 10586 10578 10570 10562 10554 10546 10539 10531 10522 10514 10506 10498 10490 10483 10478 10474 10472 10470 10468 10467 10467 10468 10470 10473 10478 10481 10485 10491 10497 10503 10509 10516 10523 10531 10539 10548 10556 10565 10573 10581 10588 10596 10605 10615 10624 10628 10630 10638 10644 10650 10661 10672 10679 10684 10690 10696 10701 10702 10703 10709 10714 10718 10722 10727 10733 10739 10744 10748 10751 10757 10761 10764 10766 10764 10765 10768 10770 10772 10775 10776 10777 10779
10621 10615 10609 10603 10597 10590 10583 10576 10567 10559 10551 10542 10534 10526 10517 10508 10500 10491 10483 10477 10471 10467 10464 10462 10461 10460 10459 10460 10462 10465 10469 10471 10476 10482 10488 10494 10500 10507 10514 10521 10530 10539 10548 10556 10565 10573 10580 10588 10597 10607 10617 10621 10624 10633 10638 10644 10656 10665 10671 10677 10683 10689 10693 10694 10697 10704 10710 10714 10717 10721 10728 10734 10739 10744 10748 10754 10759 10760 10758 10758 10761 10763 10765 10768 10770 10772 10773 10775
10619 10613 10607 10601 10595 10588 10581 10573 10564 10556 10547 10539 10531 10522 10513 10503 10495 10486 10478 10471 10465 10461 10457 10455 10454 10454 10453 10454 10456 10458 10459 10463 10468 10473 10479 10485 10492 10499 10506 10513 10521 10529 10539 10548 10556 10566 10574 10584 10593 10601 10610 10615 10621 10628 10632 10640 10651 10656 10662 10669 10675 10681 10686 10688 10692 10699 10706 10710 10712 10717 10724 10730 10735 10741 10745 10749 10753 10754 10753 10755 10756 10757 10761 10764 10765 10767 10769 10771
10618 10611 10606 10599 10593 10586 10579 10571 10562 10553 10544 10535 10527 10518 10509 10499 10490 10482 10473 10466 10460 10455 10452 10450 10449 10448 10448 10448 10449 10450 10452 10456 10460 10464 10470 10476 10483 10490 10497 10504 10512 10520 10530 10539 10548 10558 10568 10576 10584 10592 10600 10608 10617 10621 10625 10637 10644 10646 10652 10659 10665 10673 10678 10681 10686 10694 10701 10705 10708 10712 10718 10725 10731 10736 10740 10743 10747 10749 10750 10753 10752 10751 10756 10758 10759 10762 10764 10766
10616 10610 10604 10598 10591 10584 10577 10569 10559 10550 10541 10532 10523 10514 10505 10494 10485 10477 10469 10462 10456 10451 10448 10446 10444 10443 10443 10442 10443 10444 10446 10450 10453 10457 10462 10468 10474 10482 10489 10496 10504 10512 10521 10531 10541 10550 10558 10565 10574 10584 10592 10600 10609 10613 10619 10630 10635 10637 10642 10648 10656 10664 10670 10675 10681 10688 10695 10700 10703 10707 10714 10720 10726 10730 10734 10739 10742 10745 10748 10750 10748 10748 10751 10753 10753 10757 10759 10761
10615 10609 10603 10597 10590 10583 10575 10567 10557 10548 10539 10529 10520 10510 10501 10491 10481 10473 10466 10459 10453 10447 10444 10442 10441 10439 10439 10438 10438 10440 10441 10444 10447 10451 10456 10461 10467 10474 10481 10488 10496 10504 10513 10522 10532 10541 10549 10557 10568 10579 10586 10593 10602 10608 10615 10622 10627 10631 10635 10641 10649 10656 10662 10669 10676 10682 10688 10694 10698 10702 10709 10715 10720 10723 10728 10733 10737 10741 10744 10745 10744 10746 10748 10747 10747 10752 10755 10755
10614 10608 10602 10596 10589 10581 10573 10565 10556 10546 10537 10527 10517 10507 10497 10487 10477 10469 10462 10456 10450 10445 10440 10438 10437 10436 10435 10434 10434 10435 10437 10439 10442 10446 10451 10455 10461 10467 10474 10482 10489 10497 10505 10514 10523 10532 10541 10551 10561 10571 10580 10588 10596 10605 10610 10614 10620 10626 10630 10636 10643 10650 10657 10665 10671 10677 10683 10689 10693 10698 10705 10711 10714 10718 10722 10727 10732 10736 10739 10739 10740 10742 10744 10743 10743 10747 10749 10749
10613 10607 10601 10595 10588 10580 10572 10564 10554 10545 10535 10525 10515 10504 10494 10485 10475 10465 10458 10453 10448 10443 10438 10434 10433 10432 10432 10431 10431 10432 10433 10435 10437 10441 10446 10450 10455 10461 10468 10475 10482 10490 10498 10506 10514 10524 10534 10543 10552 10563 10574 10582 10589 10597 10604 10609 10615 10620 10625 10632 10640 10648 10655 10661 10666 10672 10678 10684 10688 10694 10702 10707 10709 10713 10717 10722 10727 10730 10732 10733 10735 10737 10739 10739 10740 10742 10743 10744
10612 10607 10601 10594 10587 10579 10571 10562 10553 10544 10534 10524 10513 10503 10493 10482 10472 10463 10456 10450 10445 10440 10436 10433 10430 10429 10429 10428 10428 10428 10430 10431 10434 10437 10441 10445 10450 10456 10462 10469 10476 10483 10491 10499 10507 10516 10526 10536 10546 10557 10566 10573 10581 10590 10598 10603 10608 10614 10621 10629 10637 10645 10652 10657 10662 10667 10673 10678 10683 10691 10699 10702 10703 10708 10712 10717 10721 10723 10727 10730 10730 10732 10734 10735 10736 10738 10739 10739
10612 10606 10600 10594 10586 10578 10570 10562 10552 10543 10533 10523 10513 10502 10491 10481 10471 10461 10454 10447 10442 10438 10434 10431 10428 10426 10426 10426 10426 10426 10427 10428 10430 10433 10436 10440 10445 10451 10457 10464 10471 10478 10484 10492 10500 10508 10519 10530 10541 10549 10556 10565 10576 10585 10592 10600 10608 10612 10618 10625 10634 10642 10648 10653 10658 10663 10667 10673 10680 10688 10694 10694 10696 10702 10706 10711 10716 10718 10723 10726 10725 10726 10729 10731 10733 10734 10734 10734
10611 10606 10600 10593 10585 10578 10570 10561 10552 10543 10533 10523 10512 10502 10491 10480 10469 10460 10452 10446 10441 10436 10432 10429 10426 10424 10423 10423 10423 10423 10424 10425 10427 10429 10433 10436 10441 10446 10452 10459 10465 10472 10479 10486 10494 10503 10513 10523 10533 10540 10548 10560 10572 10581 10590 10601 10608 10610 10615 10624 10633 10639 10645 10650 10654 10658 10662 10668 10675 10683 10687 10688 10691 10698 10702 10707 10711 10715 10719 10722 10722 10722 10725 10727 10728 10730 10730 10729
10611 10605 10599 10592 10585 10578 10570 10561 10552 10543 10534 10523 10513 10502 10491 10480 10469 10459 10451 10445 10440 10435 10431 10427 10424 10422 10421 10421 10420 10420 10421 10423 10424 10427 10430 10433 10437 10442 10448 10455 10461 10468 10474 10481 10489 10497 10506 10515 10525 10534 10545 10557 10568 10577 10587 10596 10599 10603 10611 10621 10627 10632 10640 10646 10650 10653 10657 10663 10670 10676 10680 10683 10687 10693 10698 10702 10707 10711 10714 10717 10718 10718 10720 10722 10724 10725 10726 10724
10611 10605 10599 10592 10585 10578 10570 10561 10552 10543 10534 10524 10513 10502 10491 10480 10469 10459 10451 10444 10438 10434 10429 10426 10423 10420 10419 10418 10418 10418 10419 10420 10422 10424 10427 10431 10435 10440 10446 10452 10458 10464 10471 10477 10485 10492 10500 10509 10520 10531 10542 10553 10563 10572 10580 10587 10592 10600 10610 10616 10620 10626 10632 10638 10642 10647 10652 10659 10664 10669 10673 10677 10682 10688 10693 10697 10702 10706 10710 10713 10714 10713 10715 10718 10719 10721 10721 10719
10610 10605 10599 10593 10586 10578 10570 10562 10553 10544 10534 10524 10514 10503 10492 10480 10469 10459 10450 10443 10438 10433 10428 10425 10422 10419 10417 10416 10416 10416 10417 10418 10420 10423 10426 10429 10433 10438 10444 10449 10454 10461 10468 10474 10481 10488 10496 10505 10516 10527 10538 10548 10558 10565 10573 10579 10587 10599 10609 10613 10617 10621 10625 10629 10635 10642 10647 10653 10658 10662 10667 10673 10678 10683 10688 10693 10697 10701 10705 10708 10710 10709 10710 10713 10716 10716 10715 10714
10611 10605 10600 10593 10586 10579 10571 10563 10554 10545 10535 10525 10515 10504 10493 10481 10470 10459 10451 10444 10438 10431 10427 10424 10421 10418 10416 10415 10415 10415 10416 10417 10419 10422 10425 10428 10432 10437 10442 10446 10452 10459 10466 10472 10478 10485 10493 10503 10513 10523 10533 10543 10550 10556 10564 10572 10583 10596 10604 10609 10613 10616 10619 10623 10630 10637 10642 10647 10652 10657 10663 10669 10674 10679 10684 10689 10693 10697 10701 10704 10705 10706 10706 10708 10711 10711 10711 10709
10611 10606 10600 10594 10587 10580 10572 10564 10555 10546 10537 10526 10516 10505 10494 10483 10471 10460 10452 10444 10437 10431 10428 10425 10421 10418 10416 10415 10415 10415 10415 10417 10419 10421 10424 10428 10432 10436 10440 10446 10452 10457 10463 10469 10475 10483 10493 10502 10510 10518 10528 10535 10541 10548 10556 10566 10580 10590 10595 10601 10607 10611 10615 10620 10626 10633 10638 10643 10648 10652 10658 10664 10670 10675 10680 10684 10688 10692 10696 10698 10700 10703 10703 10704 10706 10707 10707 10705
10611 10606 10600 10594 10588 10581 10573 10565 10557 10548 10538 10528 10518 10507 10496 10484 10473 10462 10452 10444 10438 10435 10431 10426 10422 10419 10417 10416 10416 10416 10416 10417 10419 10421 10425 10428 10432 10436 10440 10444 10449 10454 10460 10466 10473 10482 10492 10499 10506 10514 10522 10528 10534 10542 10551 10563 10576 10583 10588 10595 10602 10607 10612 10618 10622 10626 10631 10638 10644 10649 10655 10661 10667 10672 10676 10680 10684 10688 10691 10694 10697 10699 10700 10701 10703 10703 10702 10701
10611 10606 10601 10595 10589 10582 10575 10567 10559 10550 10540 10531 10521 10510 10498 10487 10475 10464 10455 10448 10443 10438 10433 10428 10424 10421 10419 10418 10417 10417 10417 10418 10420 10422 10425 10428 10432 10435 10439 10443 10448 10454 10461 10468 10476 10485 10491 10496 10502 10509 10515 10522 10530 10539 10549 10561 10570 10576 10583 10590 10595 10602 10608 10613 10617 10621 10627 10634 10641 10646 10652 10658 10663 10667 10671 10675 10680 10684 10687 10690 10693 10695 10696 10698 10699 10698 10696 10697
10611 10607 10602 10596 10590 10584 10576 10569 10561 10552 10543 10534 10524 10513 10502 10489 10477 10466 10458 10451 10445 10439 10433 10430 10426 10423 10421 10420 10419 10419 10419 10419 10421 10423 10426 10429 10432 10435 10439 10444 10449 10456 10464 10471 10478 10483 10488 10493 10499 10504 10510 10518 10527 10537 10548 10557 10564 10571 10577 10582 10588 10596 10602 10607 10613 10619 10627 10634 10639 10644 10650 10655 10659 10664 10669 10673 10677 10681 10683 10686 10688 10691 10693 10693 10694 10693 10692 10693
10611 10607 10603 10597 10592 10585 10578 10571 10563 10555 10546 10537 10527 10517 10506 10494 10481 10470 10462 10454 10446 10440 10435 10432 10428 10426 10424 10422 10421 10421 10421 10421 10422 10424 10427 10429 10433 10436 10440 10445 10450 10455 10462 10468 10473 10478 10484 10490 10496 10501 10508 10517 10526 10535 10543 10551 10559 10564 10569 10575 10584 10590 10595 10601 10610 10619 10627 10633 10638 10644 10649 10653 10656 10662 10667 10670 10673 10677 10679 10682 10684 10686 10688 10688 10688 10689 10688 10688
10612 10608 10603 10599 10593 10587 10580 10574 10566 10558 10550 10540 10531 10522 10510 10498 10487 10477 10468 10458 10449 10443 10439 10435 10432 10429 10426 10424 10423 10423 10423 10423 10424 10425 10428 10430 10434 10437 10441 10446 10451 10456 10460 10464 10470 10476 10483 10488 10495 10502 10510 10517 10524 10531 10539 10546 10551 10556 10563 10572 10577 10582 10589 10598 10609 10620 10627 10633 10638 10643 10647 10651 10654 10659 10664 10667 10669 10672 10675 10678 10680 10682 10683 10684 10683 10683 10683 10684
10613 10609 10604 10600 10595 10589 10583 10576 10569 10561 10553 10544 10536 10527 10516 10504 10494 10484 10473 10462 10454 10449 10444 10439 10435 10432 10429 10427 10426 10425 10425 10426 10426 10427 10429 10432 10435 10438 10442 10446 10450 10455 10459 10464 10469 10476 10482 10488 10495 10502 10508 10513 10519 10527 10534 10539 10544 10551 10560 10566 10571 10578 10588 10598 10608 10617 10625 10631 10637 10642 10645 10649 10653 10655 10659 10663 10665 10667 10670 10674 10676 10678 10679 10679 10678 10678 10679 10681
10613 10609 10605 10601 10596 10591 10585 10578 10572 10564 10557 10548 10540 10531 10521 10511 10501 10489 10477 10467 10460 10453 10446 10442 10438 10434 10432 10430 10429 10428 10428 10428 10429 10430 10431 10433 10436 10440 10443 10447 10451 10455 10460 10465 10470 10475 10481 10488 10494 10499 10503 10508 10515 10522 10528 10534 10540 10549 10556 10562 10569 10578 10587 10596 10605 10613 10621 10629 10635 10640 10643 10648 10652 10653 10656 10659 10660 10663 10667 10670 10672 10674 10675 10675 10675 10676 10677 10678
10614 10610 10606 10602 10598 10593 10587 10581 10575 10568 10561 10553 10545 10536 10527 10517 10507 10496 10485 10474 10465 10456 10449 10445 10441 10437 10435 10433 10432 10431 10431 10431 10431 10432 10434 10436 10438 10442 10445 10449 10453 10457 10461 10466 10471 10476 10481 10486 10491 10496 10501 10506 10513 10518 10525 10532 10539 10547 10554 10562 10570 10578 10586 10593 10600 10607 10615 10624 10631 10635 10640 10644 10648 10651 10653 10655 10656 10659 10662 10664 10666 10669 10670 10672 10673 10673 10674 10675
10614 10611 10607 10603 10599 10595 10590 10584 10578 10571 10564 10557 10550 10542 10533 10524 10515 10504 10493 10480 10470 10461 10454 10449 10445 10442 10439 10437 10435 10434 10434 10434 10434 10435 10437 10438 10440 10443 10446 10450 10455 10460 10464 10468 10472 10477 10482 10485 10490 10495 10501 10506 10511 10518 10525 10532 10538 10546 10553 10561 10568 10575 10582 10589 10596 10604 10612 10620 10625 10630 10635 10640 10644 10647 10650 10650 10650 10653 10656 10658 10661 10663 10666 10668 10669 10670 10671 10672
10615 10612 10608 10605 10601 10597 10592 10587 10581 10575 10568 10562 10554 10546 10538 10530 10521 10510 10498 10487 10476 10467 10459 10454 10449 10446 10443 10440 10438 10437 10437 10437 10437 10437 10439 10441 10443 10445 10448 10451 10454 10459 10465 10470 10474 10479 10483 10487 10491 10496 10501 10506 10511 10517 10524 10530 10537 10544 10551 10558 10566 10573 10580 10587 10594 10601 10608 10612 10616 10622 10630 10636 10641 10644 10643 10644 10647 10650 10652 10654 10656 10658 10661 10664 10666 10667 10668 10669
10616 10613 10609 10606 10602 10599 10595 10589 10584 10578 10572 10566 10558 10550 10543 10535 10526 10516 10505 10494 10483 10474 10466 10459 10454 10450 10447 10445 10442 10441 10441 10441 10440 10441 10441 10443 10445 10447 10450 10453 10456 10459 10464 10469 10475 10480 10485 10490 10494 10498 10502 10506 10511 10516 10522 10529 10537 10543 10550 10558 10565 10572 10579 10584 10590 10595 10599 10603 10609 10618 10626 10632 10637 10638 10636 10640 10646 10648 10649 10651 10653 10655 10657 10660 10662 10664 10664 10665
10616 10613 10610 10607 10603 10600 10597 10592 10587 10581 10575 10570 10563 10555 10549 10541 10532 10522 10513 10503 10492 10482 10473 10466 10460 10455 10452 10449 10446 10445 10444 10444 10444 10444 10444 10446 10448 10450 10452 10455 10459 10462 10465 10470 10474 10479 10484 10489 10494 10499 10502 10506 10510 10515 10522 10528 10534 10540 10548 10555 10562 10568 10573 10578 10583 10588 10593 10600 10607 10615 10620 10625 10630 10632 10634 10639 10643 10644 10647 10649 10651 10652 10654 10656 10658 10660 10660 10661
10617 10614 10611 10608 10605 10602 10598 10594 10590 10584 10579 10573 10567 10561 10554 10546 10538 10529 10520 10511 10501 10491 10481 10473 10467 10461 10457 10453 10451 10449 10448 10447 10448 10448 10448 10448 10450 10452 10454 10457 10460 10463 10466 10470 10474 10479 10484 10488 10492 10497 10501 10506 10510 10515 10521 10526 10531 10538 10545 10552 10557 10563 10568 10573 10579 10585 10593 10600 10606 10611 10616 10621 10626 10629 10633 10637 10639 10642 10645 10647 10649 10650 10652 10654 10655 10656 10657 10657
10617 10614 10612 10609 10606 10603 10600 10596 10592 10587 10582 10577 10572 10566 10559 10551 10544 10536 10527 10519 10509 10499 10490 10482 10475 10468 10462 10458 10456 10453 10452 10451 10451 10452 10452 10452 10453 10454 10456 10458 10460 10463 10466 10469 10473 10477 10482 10487 10492 10496 10501 10506 10510 10515 10520 10525 10532 10539 10545 10549 10555 10561 10567 10573 10579 10585 10592 10597 10602 10607 10613 10617 10621 10625 10629 10632 10635 10639 10642 10644 10646 10647 10649 10650 10651 10652 10653 10653
10617 10615 10612 10610 10607 10604 10601 10598 10595 10590 10585 10580 10576 10571 10564 10557 10550 10543 10535 10527 10518 10509 10500 10492 10484 10476 10469 10465 10461 10458 10456 10455 10454 10455 10455 10456 10456 10457 10458 10460 10462 10464 10467 10470 10472 10476 10480 10484 10490 10495 10500 10505 10510 10514 10519 10526 10532 10538 10542 10548 10556 10562 10567 10572 10578 10584 10588 10593 10598 10603 10608 10613 10617 10621 10625 10628 10631 10635 10637 10640 10642 10643 10645 10646 10646 10647 10648 10648
10617 10615 10613 10610 10608 10605 10603 10600 10597 10593 10589 10584 10580 10575 10569 10563 10556 10550 10543 10535 10527 10519 10510 10501 10493 10484 10477 10472 10467 10463 10461 10459 10458 10458 10458 10459 10460 10460 10461 10463 10464 10465 10468 10471 10474 10478 10482 10486 10491 10495 10499 10504 10509 10515 10520 10526 10532 10537 10542 10549 10556 10561 10565 10571 10576 10581 10585 10590 10595 10600 10605 10610 10613 10617 10621 10624 10627 10630 10633 10635 10637 10639 10640 10641 10641 10642 10642 10643
10617 10616 10613 10611 10609 10606 10604 10601 10599 10596 10592 10588 10583 10579 10574 10568 10562 10556 10549 10543 10535 10527 10519 10511 10502 10494 10486 10480 10475 10470 10466 10464 10463 10462 10462 10462 10462 10463 10464 10465 10467 10468 10470 10474 10477 10480 10483 10487 10491 10496 10500 10505 10510 10515 10520 10526 10531 10537 10544 10550 10555 10560 10565 10570 10575 10579 10584 10588 10593 10597 10602 10606 10609 10613 10617 10620 10623 10626 10629 10631 10633 10635 10635 10636 10637 10637 10638 10639
10617 10616 10614 10612 10610 10607 10605 10603 10601 10598 10595 10591 10587 10583 10578 10573 10568 10562 10556 10550 10543 10535 10528 10521 10513 10504 10496 10489 10483 10478 10473 10470 10468 10467 10466 10465 10465 10466 10467 10468 10470 10471 10473 10476 10480 10484 10487 10489 10493 10497 10502 10507 10510 10514 10519 10525 10531 10537 10543 10548 10553 10558 10564 10569 10574 10578 10582 10586 10591 10595 10599 10602 10606 10610 10613 10617 10620 10623 10626 10628 10630 10631 10632 10633 10634 10635 10635 10636
10616 10615 10614 10613 10611 10608 10606 10604 10602 10600 10597 10594 10591 10587 10582 10578 10573 10568 10563 10557 10550 10544 10537 10530 10523 10515 10507 10499 10493 10487 10481 10478 10475 10472 10471 10470 10470 10469 10470 10471 10473 10475 10476 10479 10482 10487 10491 10494 10497 10499 10501 10505 10510 10515 10520 10526 10531 10537 10542 10547 10552 10558 10563 10568 10572 10576 10580 10584 10589 10593 10596 10600 10604 10607 10610 10614 10617 10620 10622 10624 10626 10628 10629 10631 10632 10633 10634 10635
10616 10615 10614 10613 10611 10609 10607 10605 10603 10601 10599 10596 10594 10590 10586 10583 10578 10574 10569 10564 10558 10552 10545 10539 10532 10526 10519 10512 10505 10498 10492 10487 10483 10479 10477 10476 10475 10474 10474 10475 10477 10479 10480 10482 10484 10488 10492 10496 10499 10501 10501 10504 10509 10515 10521 10527 10532 10537 10543 10548 10553 10558 10563 10567 10570 10574 10579 10583 10588 10592 10594 10598 10602 10605 10608 10612 10615 10617 10620 10622 10623 10625 10627 10628 10629 10630 10631 10631
10615 10615 10614 10613 10612 10610 10608 10606 10605 10603 10601 10599 10596 10593 10590 10587 10583 10579 10575 10570 10565 10560 10554 10548 10542 10536 10529 10523 10517 10510 10503 10497 10493 10488 10485 10483 10481 10481 10480 10480 10482 10483 10485 10487 10489 10491 10494 10498 10501 10506 10509 10509 10511 10516 10521 10527 10532 10538 10543 10548 10553 10558 10562 10566 10570 10575 10579 10583 10587 10590 10593 10597 10601 10604 10607 10610 10613 10615 10617 10619 10620 10622 10623 10624 10625 10626 10627 10627
10615 10614 10614 10613 10612 10611 10609 10607 10606 10604 10603 10601 10598 10596 10593 10591 10587 10584 10580 10576 10572 10567 10562 10556 10551 10545 10539 10533 10528 10521 10515 10509 10504 10499 10495 10491 10489 10488 10487 10487 10487 10488 10490 10492 10494 10495 10498 10501 10505 10510 10515 10518 10520 10523 10526 10531 10535 10540 10545 10550 10554 10559 10563 10567 10572 10576 10579 10583 10587 10590 10593 10596 10600 10603 10605 10608 10610 10612 10613 10615 10616 10618 10619 10620 10621 10622 10622 10622
10614 10614 10613 10613 10612 10611 10610 10608 10607 10605 10604 10602 10600 10598 10596 10594 10591 10588 10585 10581 10577 10573 10569 10564 10559 10554 10549 10543 10538 10532 10527 10521 10516 10511 10506 10503 10499 10497 10496 10495 10495 10495 10495 10497 10499 10501 10503 10506 10509 10512 10517 10522 10526 10529 10532 10536 10540 10544 10549 10553 10557 10561 10565 10569 10573 10576 10580 10583 10587 10589 10592 10595 10599 10601 10602 10604 10607 10609 10610 10612 10614 10615 10616 10617 10618 10618 10619 10619
10612 10613 10613 10612 10612 10611 10610 10609 10608 10606 10605 10604 10602 10600 10598 10596 10594 10591 10589 10586 10582 10579 10575 10571 10567 10563 10558 10553 10548 10543 10538 10533 10528 10523 10519 10515 10511 10508 10506 10504 10504 10503 10503 10504 10505 10507 10508 10511 10514 10517 10520 10524 10529 10533 10537 10540 10544 10548 10552 10556 10560 10563 10567 10570 10573 10576 10579 10583 10585 10588 10591 10594 10596 10599 10600 10603 10605 10607 10608 10610 10612 10613 10614 10615 10615 10616 10617 10617
10611 10612 10612 10612 10612 10611 10610 10609 10609 10607 10606 10605 10604 10602 10600 10598 10597 10595 10592 10590 10587 10584 10581 10578 10574 10570 10566 10562 10557 10553 10548 10543 10539 10535 10531 10527 10524 10521 10518 10516 10514 10513 10512 10512 10513 10514 10515 10517 10519 10522 10525 10528 10532 10536 10540 10544 10547 10551 10555 10558 10561 10564 10568 10571 10573 10576 10580 10582 10585 10588 10590 10593 10596 10598 10600 10602 10604 10605 10607 10608 10610 10611 10612 10613 10614 10615 10616 10616
10609 10610 10610 10611 10611 10611 10610 10609 10609 10608 10607 10606 10605 10604 10602 10600 10599 10597 10595 10593 10591 10589 10586 10583 10580 10577 10573 10570 10566 10562 10558 10554 10550 10546 10543 10539 10536 10533 10530 10528 10526 10524 10523 10522 10522 10523 10524 10525 10526 10529 10531 10534 10537 10540 10544 10547 10551 10554 10557 10561 10564 10567 10570 10572 10575 10578 10581 10583 10586 10588 10591 10593 10595 10597 10599 10601 10603 10605 10606 10608 10610 10611 10612 10613 10615 10615 10616 10617
10607 10608 10609 10609 10610 10610 10610 10609 10609 10608 10608 10607 10606 10605 10604 10602 10601 10599 10598 10596 10594 10592 10590 10588 10585 10582 10579 10576 10573 10570 10566 10563 10559 10556 10553 10550 10547 10545 10542 10540 10538 10536 10535 10534 10533 10533 10533 10534 10535 10537 10539 10541 10543 10546 10549 10552 10555 10558 10561 10564 10567 10569 10572 10575 10577 10580 10582 10584 10587 10589 10591 10594 10596 10598 10600 10602 10604 10606 10608 10610 10611 10613 10614 10615 10616 10616 10617 10617
10605 10606 10607 10608 10608 10609 10609 10609 10608 10608 10608 10607 10606 10605 10605 10604 10602 10601 10600 10599 10597 10595 10594 10592 10590 10587 10585 10582 10579 10577 10574 10571 10568 10566 10563 10560 10557 10555 10553 10551 10549 10547 10546 10544 10544 10544 10544 10545 10546 10547 10548 10550 10552 10554 10556 10558 10561 10564 10566 10569 10571 10574 10576 10578 10581 10583 10585 10587 10590 10592 10594 10597 10599 10601 10603 10605 10607 10609 10610 10612 10613 10614 10615 10616 10616 10617 10617 10616
10602 10603 10605 10606 10607 10607 10607 10608 10608 10608 10608 10608 10607 10606 10605 10605 10604 10603 10601 10601 10599 10598 10596 10595 10593 10591 10589 10587 10585 10583 10580 10578 10575 10573 10571 10569 10566 10564 10562 10560 10559 10558 10556 10555 10555 10555 10555 10555 10556 10557 10558 10559 10561 10562 10564 10566 10568 10571 10573 10575 10577 10579 10582 10584 10586 10588 10590 10592 10594 10596 10598 10601 10602 10604 10606 10608 10609 10611 10612 10613 10614 10615 10615 10616 10616 10616 10615 10615